This is the latest recevied weather packets stored in our database for station/object HG5PBP-13. If no packets are shown the sender has not sent any weather packets the latest 1 day(s).
| Time | Temp. | Humidity | Pressure | Rain* | Wind** | Luminosity | Snow |
|---|---|---|---|---|---|---|---|
| 1777991057 | 23.33° C | 3% | - | 0 mm | 2.68 m/s, 212° | - | - |
| 1777990757 | 22.78° C | 3% | - | 0 mm | 2.24 m/s, 138° | - | - |
| 1777990457 | 22.78° C | 3% | - | 0 mm | 4.47 m/s, 249° | - | - |
| 1777990157 | 22.78° C | 3% | - | 0 mm | 4.47 m/s, 189° | - | - |
| 1777989857 | 22.78° C | 3% | - | 0 mm | 5.36 m/s, 189° | - | - |
| 1777989557 | 22.78° C | 3% | - | 0 mm | 5.36 m/s, 133° | - | - |
| 1777989257 | 22.22° C | 3% | - | 0 mm | 2.68 m/s, 166° | - | - |
| 1777988957 | 22.22° C | 3% | - | 0 mm | 2.24 m/s, 152° | - | - |
| 1777988657 | 22.22° C | 3% | - | 0 mm | 2.68 m/s, 188° | - | - |
| 1777988357 | 22.22° C | 3% | - | 0 mm | 3.13 m/s, 162° | - | - |
| 1777988057 | 22.22° C | 3% | - | 0 mm | 0.89 m/s, 243° | - | - |
| 1777987757 | 22.22° C | 3% | - | 0 mm | 3.13 m/s, 193° | - | - |
| 1777987457 | 22.22° C | 3% | - | 0 mm | 5.36 m/s, 214° | - | - |
| 1777987156 | 22.78° C | 3% | - | 0 mm | 5.81 m/s, 197° | - | - |
| 1777986856 | 23.33° C | 3% | - | 0 mm | 3.13 m/s, 204° | - | - |
| 1777986556 | 23.89° C | 3% | - | 0 mm | 5.36 m/s, 182° | - | - |
| 1777986256 | 23.89° C | 3% | - | 0 mm | 5.36 m/s, 270° | - | - |
| 1777985956 | 23.89° C | 3% | - | 0 mm | 4.47 m/s, 208° | - | - |
| 1777985656 | 23.89° C | 3% | - | 0 mm | 6.26 m/s, 186° | - | - |
| 1777985356 | 23.89° C | 3% | - | 0 mm | 3.58 m/s, 224° | - | - |
| 1777985056 | 23.89° C | 3% | - | 0 mm | 4.02 m/s, 174° | - | - |
| 1777984756 | 23.89° C | 3% | - | 0 mm | 8.94 m/s, 153° | - | - |
| 1777984456 | 23.33° C | 3% | - | 0 mm | 2.24 m/s, 178° | - | - |
| 1777984156 | 23.33° C | 3% | - | 0 mm | 1.79 m/s, 343° | - | - |
| 1777983856 | 23.33° C | 3% | - | 0 mm | 4.47 m/s, 172° | - | - |
* Rain latest hour (hover to see other rain measurements)
** Current wind speed in m/s (hover to see current wind gust speed)